Вернуться в каталог

STARLINK-2164

АктивенСвязьVLEO
NORAD 47750·PAYLOAD·🇺🇸 United States

Запущен Mar 4, 2021 с Cape Canaveral Space Force Station

Loading…

Ближайшие Пролёты (ближайшие 24 часа)

TLE

СвежийSource: CelesTrak SupGP

Эпоха: Sep 14, 2026, 20:53 UTC

1 47750C 21017AE  26257.87062500  .00067775  00000+0  20912-2 0  2578
2 47750  53.1581  33.0313 0001477 359.5688 312.5281 15.32985690    15

Отслеживайте STARLINK-2164 в реальном времени с AllMySat

Download on the App Store